THY2ML LOWW-LTFM

Flight info

Callsign THY2ML
Flight time N/A
Altitude 37000
Route ADAMA Z648 VEDER L140 ALAMU DCT EPARI DCT TEGRI DCT SODGO DCT NULGO DCT TIMUR DCT XANEX L606 GASRU DCT RILEX
Aircraft A320/M-SDE3FGHIRWY/LB1

Departure

Time N/A
Airport Vienna International Airport (LOWW)

Arrival

Time 2026-05-04 18:59
Airport İstanbul Airport (LTFM)
Time Latitude Longitude Altitude Speed Heading
2026-05-04 18:41 41.64559 27.30650 25957 ft 474 kts 136°
2026-05-04 18:41 41.62032 27.33471 25468 ft 471 kts 136°
2026-05-04 18:41 41.59522 27.36274 24992 ft 469 kts 136°
2026-05-04 18:41 41.57029 27.39062 24517 ft 466 kts 135°
2026-05-04 18:42 41.54549 27.41834 24054 ft 464 kts 135°
2026-05-04 18:42 41.52078 27.44591 23586 ft 461 kts 135°
2026-05-04 18:42 41.49624 27.47330 23041 ft 458 kts 135°
2026-05-04 18:42 41.46102 27.51250 22278 ft 453 kts 135°
2026-05-04 18:43 41.43687 27.53935 21757 ft 450 kts 135°
2026-05-04 18:43 41.41290 27.56590 21250 ft 446 kts 135°
2026-05-04 18:43 41.38916 27.59217 20744 ft 443 kts 135°
2026-05-04 18:43 41.36542 27.61840 20246 ft 440 kts 135°
2026-05-04 18:44 41.34202 27.64427 19773 ft 436 kts 135°
2026-05-04 18:44 41.32627 27.66169 19438 ft 434 kts 135°
2026-05-04 18:44 41.29572 27.69547 18816 ft 430 kts 135°
2026-05-04 18:44 41.27275 27.72083 18337 ft 427 kts 135°
2026-05-04 18:45 41.21485 27.78453 17005 ft 420 kts 135°
2026-05-04 18:45 41.12602 27.88227 14989 ft 407 kts 134°
2026-05-04 18:45 41.07990 28.00796 12913 ft 373 kts 104°
2026-05-04 18:45 41.05824 28.08605 11655 ft 365 kts 105°
2026-05-04 18:46 41.04951 28.11753 11047 ft 364 kts 104°
2026-05-04 18:46 41.04083 28.14905 10490 ft 363 kts 104°
2026-05-04 18:46 41.03233 28.17996 10272 ft 351 kts 104°
2026-05-04 18:46 41.02410 28.20987 10103 ft 340 kts 104°
2026-05-04 18:47 41.01612 28.23887 9938 ft 330 kts 103°
2026-05-04 18:47 41.00838 28.26703 9749 ft 322 kts 103°
2026-05-04 18:47 41.00079 28.29465 9567 ft 314 kts 103°
2026-05-04 18:47 40.99342 28.32141 9379 ft 307 kts 103°
2026-05-04 18:48 40.98617 28.34770 9200 ft 301 kts 103°
2026-05-04 18:48 40.97906 28.37348 8996 ft 296 kts 102°
2026-05-04 18:48 40.97057 28.39823 8763 ft 297 kts 112°
2026-05-04 18:48 40.96285 28.42268 8578 ft 279 kts 93°
2026-05-04 18:49 40.96060 28.44774 8341 ft 272 kts 87°
2026-05-04 18:49 40.95920 28.47255 8090 ft 270 kts 86°
2026-05-04 18:49 40.95791 28.49720 7833 ft 268 kts 86°
2026-05-04 18:49 40.95663 28.52176 7574 ft 266 kts 86°
2026-05-04 18:50 40.95682 28.54582 7325 ft 258 kts 77°
2026-05-04 18:50 40.95848 28.56928 7075 ft 255 kts 76°
2026-05-04 18:50 40.96030 28.59288 6835 ft 254 kts 76°
2026-05-04 18:50 40.96208 28.61610 6549 ft 253 kts 76°
2026-05-04 18:51 40.96380 28.63915 6263 ft 250 kts 76°
2026-05-04 18:51 40.96547 28.66158 5994 ft 248 kts 76°
2026-05-04 18:51 40.96805 28.68384 5710 ft 240 kts 65°
2026-05-04 18:51 40.97507 28.70327 5494 ft 225 kts 47°
2026-05-04 18:52 40.98538 28.71785 5299 ft 211 kts 32°
2026-05-04 18:52 40.99770 28.72740 5135 ft 200 kts 18°
2026-05-04 18:52 41.01075 28.73195 5039 ft 191 kts
2026-05-04 18:52 41.02367 28.73232 4979 ft 183 kts 359°
2026-05-04 18:53 41.03614 28.73210 4792 ft 180 kts 359°
2026-05-04 18:53 41.04859 28.73187 4580 ft 171 kts 359°
2026-05-04 18:53 41.05992 28.73166 4342 ft 155 kts 359°
2026-05-04 18:53 41.07018 28.73147 4139 ft 141 kts 359°
2026-05-04 18:54 41.07984 28.73128 3948 ft 137 kts 359°
2026-05-04 18:54 41.08935 28.73110 3769 ft 137 kts 360°
2026-05-04 18:54 41.09885 28.73092 3580 ft 136 kts 360°
2026-05-04 18:54 41.10828 28.73073 3401 ft 136 kts 360°
2026-05-04 18:55 41.11772 28.73055 3215 ft 135 kts 360°
2026-05-04 18:55 41.13654 28.73019 2843 ft 135 kts
2026-05-04 18:55 41.14577 28.73001 2650 ft 135 kts
2026-05-04 18:56 41.15510 28.72983 2483 ft 134 kts 360°
2026-05-04 18:56 41.16435 28.72965 2302 ft 133 kts 360°
2026-05-04 18:56 41.17369 28.72947 2111 ft 134 kts
2026-05-04 18:56 41.18297 28.72929 1935 ft 133 kts
2026-05-04 18:57 41.19214 28.72911 1763 ft 132 kts
2026-05-04 18:57 41.20129 28.72893 1566 ft 131 kts
2026-05-04 18:57 41.21043 28.72877 1336 ft 131 kts
2026-05-04 18:57 41.21946 28.72864 1198 ft 131 kts 360°
2026-05-04 18:58 41.22861 28.72855 990 ft 132 kts 358°
2026-05-04 18:58 41.23783 28.72846 862 ft 133 kts 357°
2026-05-04 18:58 41.24708 28.72825 668 ft 132 kts 356°
2026-05-04 18:58 41.25634 28.72790 463 ft 133 kts 355°
2026-05-04 18:59 41.26557 28.72773 351 ft 132 kts 357°
2026-05-04 18:59 41.27342 28.72751 331 ft 90 kts 359°
2026-05-04 18:59 41.27800 28.72746 330 ft 48 kts
2026-05-04 18:59 41.28026 28.72808 333 ft 20 kts 33°
2026-05-04 19:00 41.28087 28.72854 334 ft 6 kts 28°
2026-05-04 19:00 41.28103 28.72866 334 ft 0 kts 28°
2026-05-04 19:00 41.28109 28.72870 334 ft 2 kts 28°
2026-05-04 19:01 41.28128 28.72888 329 ft 5 kts 46°
2026-05-04 19:01 41.28115 28.72952 330 ft 12 kts 148°
2026-05-04 19:01 41.28018 28.72963 334 ft 16 kts 180°
2026-05-04 19:01 41.27895 28.72963 334 ft 19 kts 179°
2026-05-04 19:02 41.27762 28.72967 333 ft 19 kts 178°
2026-05-04 19:02 41.27658 28.72969 331 ft 15 kts 178°
2026-05-04 19:02 41.27542 28.72974 331 ft 18 kts 179°
2026-05-04 19:02 41.27475 28.72974 334 ft 8 kts 180°
2026-05-04 19:03 41.27411 28.72975 332 ft 11 kts 179°
2026-05-04 19:03 41.27328 28.72978 331 ft 13 kts 178°
2026-05-04 19:03 41.27228 28.72981 332 ft 16 kts 179°
2026-05-04 19:03 41.27121 28.72982 330 ft 14 kts 181°
2026-05-04 19:04 41.27016 28.72979 333 ft 16 kts 176°
2026-05-04 19:04 41.26910 28.72989 333 ft 14 kts 178°
2026-05-04 19:04 41.26802 28.72991 333 ft 17 kts 179°
2026-05-04 19:04 41.26674 28.72993 332 ft 17 kts 179°
2026-05-04 19:05 41.26597 28.73047 331 ft 13 kts 100°
2026-05-04 19:05 41.26598 28.73159 333 ft 12 kts 90°
2026-05-04 19:05 41.26599 28.73282 334 ft 15 kts 89°
2026-05-04 19:05 41.26546 28.73377 331 ft 15 kts 155°
2026-05-04 19:06 41.26463 28.73415 333 ft 13 kts 160°
2026-05-04 19:06 41.26386 28.73452 332 ft 12 kts 160°
2026-05-04 19:06 41.26378 28.73522 334 ft 10 kts 65°
2026-05-04 19:06 41.26393 28.73581 333 ft 0 kts 71°
2026-05-04 19:39 41.26393 28.73580 334 ft 0 kts 71°